Time,TemperatureF,DewpointF,PressureIn,WindDirection,WindDirectionDegrees,WindSpeedMPH,WindSpeedGustMPH,Humidity,HourlyPrecipIn,Conditions,Clouds,dailyrainin,SoftwareType,DateUTC
2013-11-19 00:04:00,39.9,27.9,30.06,WSW,241,6.0,6.0,62,0.00,,,0.00,Wunderground v.1.13,2013-11-19 05:04:00,
2013-11-19 00:09:00,39.9,28.3,30.06,SW,227,7.0,7.0,63,0.00,,,0.00,Wunderground v.1.13,2013-11-19 05:09:00,
2013-11-19 00:14:00,39.8,28.2,30.06,SW,219,7.0,7.0,63,0.00,,,0.00,Wunderground v.1.13,2013-11-19 05:14:00,
2013-11-19 00:19:00,39.8,28.6,30.06,SW,230,6.0,6.0,64,0.00,,,0.00,Wunderground v.1.13,2013-11-19 05:19:00,
2013-11-19 00:24:00,39.7,28.5,30.06,SSW,192,6.0,10.0,64,0.00,,,0.00,Wunderground v.1.13,2013-11-19 05:24:00,
2013-11-19 00:29:00,39.7,28.5,30.06,SSW,211,7.0,10.0,64,0.00,,,0.00,Wunderground v.1.13,2013-11-19 05:29:00,
2013-11-19 00:34:00,39.7,28.5,30.06,WSW,246,6.0,6.0,64,0.00,,,0.00,Wunderground v.1.13,2013-11-19 05:34:00,
2013-11-19 00:39:00,39.6,28.4,30.06,WSW,240,6.0,6.0,64,0.00,,,0.00,Wunderground v.1.13,2013-11-19 05:39:00,
2013-11-19 00:44:00,39.5,28.3,30.06,SW,215,6.0,6.0,64,0.00,,,0.00,Wunderground v.1.13,2013-11-19 05:44:00,
2013-11-19 00:54:00,39.5,28.7,30.07,SW,215,5.0,5.0,65,0.00,,,0.00,Wunderground v.1.13,2013-11-19 05:54:00,
2013-11-19 00:59:00,39.5,28.3,30.06,SSW,203,4.0,10.0,64,0.00,,,0.00,Wunderground v.1.13,2013-11-19 05:59:00,
2013-11-19 01:04:00,39.4,28.2,30.07,WSW,253,5.0,13.0,64,0.00,,,0.00,Wunderground v.1.13,2013-11-19 06:04:00,
2013-11-19 01:14:00,39.4,28.2,30.07,SSW,213,5.0,13.0,64,0.00,,,0.00,Wunderground v.1.13,2013-11-19 06:14:00,
2013-11-19 01:19:00,39.3,28.1,30.07,SW,225,3.0,13.0,64,0.00,,,0.00,Wunderground v.1.13,2013-11-19 06:19:00,
2013-11-19 01:24:00,39.3,28.1,30.07,SW,234,3.0,13.0,64,0.00,,,0.00,Wunderground v.1.13,2013-11-19 06:24:00,
2013-11-19 01:34:00,39.2,28.0,30.07,WNW,299,3.0,13.0,64,0.00,,,0.00,Wunderground v.1.13,2013-11-19 06:34:00,
2013-11-19 01:39:00,39.2,28.0,30.08,SW,236,4.0,13.0,64,0.00,,,0.00,Wunderground v.1.13,2013-11-19 06:39:00,
2013-11-19 01:49:00,39.1,27.9,30.08,SW,221,3.0,13.0,64,0.00,,,0.00,Wunderground v.1.13,2013-11-19 06:49:00,
2013-11-19 01:54:00,39.0,28.2,30.08,SSE,165,2.0,2.0,65,0.00,,,0.00,Wunderground v.1.13,2013-11-19 06:54:00,
2013-11-19 02:04:00,38.9,27.8,30.09,SE,140,1.0,5.0,64,0.00,,,0.00,Wunderground v.1.13,2013-11-19 07:04:00,
2013-11-19 02:14:00,38.5,27.0,30.09,SSE,168,4.0,4.0,63,0.00,,,0.00,Wunderground v.1.13,2013-11-19 07:14:00,
2013-11-19 02:19:00,38.5,27.0,30.10,SW,217,3.0,3.0,63,0.00,,,0.00,Wunderground v.1.13,2013-11-19 07:19:00,
2013-11-19 02:24:00,38.4,26.9,30.10,SSE,148,2.0,5.0,63,0.00,,,0.00,Wunderground v.1.13,2013-11-19 07:24:00,
2013-11-19 02:34:00,38.2,26.7,30.10,SSE,155,3.0,3.0,63,0.00,,,0.00,Wunderground v.1.13,2013-11-19 07:34:00,
2013-11-19 02:44:00,38.0,26.5,30.10,SSE,163,2.0,2.0,63,0.00,,,0.00,Wunderground v.1.13,2013-11-19 07:44:00,
2013-11-19 02:54:00,37.9,26.4,30.11,South,186,2.0,2.0,63,0.00,,,0.00,Wunderground v.1.13,2013-11-19 07:54:00,
2013-11-19 02:59:00,37.9,26.0,30.11,ENE,64,2.0,5.0,62,0.00,,,0.00,Wunderground v.1.13,2013-11-19 07:59:00,
2013-11-19 03:04:00,37.8,26.3,30.11,SSW,199,2.0,8.0,63,0.00,,,0.00,Wunderground v.1.13,2013-11-19 08:04:00,
2013-11-19 03:14:00,37.5,26.0,30.11,SSE,165,2.0,8.0,63,0.00,,,0.00,Wunderground v.1.13,2013-11-19 08:14:00,
2013-11-19 03:24:00,37.4,25.9,30.12,South,186,2.0,2.0,63,0.00,,,0.00,Wunderground v.1.13,2013-11-19 08:24:00,
2013-11-19 03:34:00,37.2,26.1,30.12,SSE,154,2.0,2.0,64,0.00,,,0.00,Wunderground v.1.13,2013-11-19 08:34:00,
2013-11-19 03:44:00,37.0,25.9,30.12,South,190,2.0,2.0,64,0.00,,,0.00,Wunderground v.1.13,2013-11-19 08:44:00,
2013-11-19 03:54:00,36.9,25.9,30.13,ESE,109,2.0,2.0,64,0.00,,,0.00,Wunderground v.1.13,2013-11-19 08:54:00,
2013-11-19 03:59:00,36.9,25.9,30.13,SSE,157,2.0,2.0,64,0.00,,,0.00,Wunderground v.1.13,2013-11-19 08:59:00,
2013-11-19 04:04:00,36.9,26.2,30.13,SSE,160,2.0,8.0,65,0.00,,,0.00,Wunderground v.1.13,2013-11-19 09:04:00,
2013-11-19 04:14:00,36.8,26.1,30.14,SSE,148,2.0,2.0,65,0.00,,,0.00,Wunderground v.1.13,2013-11-19 09:14:00,
2013-11-19 04:19:00,36.8,26.1,30.14,SSE,157,1.0,8.0,65,0.00,,,0.00,Wunderground v.1.13,2013-11-19 09:19:00,
2013-11-19 04:24:00,36.7,26.0,30.14,SSE,161,1.0,1.0,65,0.00,,,0.00,Wunderground v.1.13,2013-11-19 09:24:00,
2013-11-19 04:34:00,36.6,25.9,30.15,SE,136,2.0,2.0,65,0.00,,,0.00,Wunderground v.1.13,2013-11-19 09:34:00,
2013-11-19 04:39:00,36.6,25.9,30.15,SE,136,2.0,8.0,65,0.00,,,0.00,Wunderground v.1.13,2013-11-19 09:39:00,
2013-11-19 04:44:00,36.6,25.9,30.15,South,169,1.0,1.0,65,0.00,,,0.00,Wunderground v.1.13,2013-11-19 09:44:00,
2013-11-19 04:49:00,36.6,25.9,30.15,SSE,164,2.0,2.0,65,0.00,,,0.00,Wunderground v.1.13,2013-11-19 09:49:00,
2013-11-19 04:59:00,36.5,25.8,30.16,South,182,2.0,2.0,65,0.00,,,0.00,Wunderground v.1.13,2013-11-19 09:59:00,
2013-11-19 05:04:00,36.5,25.8,30.16,SSE,155,1.0,5.0,65,0.00,,,0.00,Wunderground v.1.13,2013-11-19 10:04:00,
2013-11-19 05:14:00,36.5,25.8,30.16,SSW,196,2.0,5.0,65,0.00,,,0.00,Wunderground v.1.13,2013-11-19 10:14:00,
2013-11-19 05:24:00,36.5,25.8,30.16,SW,225,1.0,5.0,65,0.00,,,0.00,Wunderground v.1.13,2013-11-19 10:24:00,
2013-11-19 05:29:00,36.5,26.2,30.16,SSE,152,1.0,1.0,66,0.00,,,0.00,Wunderground v.1.13,2013-11-19 10:29:00,
2013-11-19 05:39:00,36.4,26.1,30.16,South,186,2.0,2.0,66,0.00,,,0.00,Wunderground v.1.13,2013-11-19 10:39:00,
2013-11-19 05:44:00,36.4,26.1,30.16,SE,146,1.0,1.0,66,0.00,,,0.00,Wunderground v.1.13,2013-11-19 10:44:00,
2013-11-19 05:54:00,36.4,26.1,30.17,South,179,1.0,5.0,66,0.00,,,0.00,Wunderground v.1.13,2013-11-19 10:54:00,
2013-11-19 06:04:00,36.4,26.1,30.17,SSE,148,1.0,1.0,66,0.00,,,0.00,Wunderground v.1.13,2013-11-19 11:04:00,
2013-11-19 06:14:00,36.5,26.2,30.18,SSE,152,1.0,9.0,66,0.00,,,0.00,Wunderground v.1.13,2013-11-19 11:14:00,
2013-11-19 06:24:00,36.5,26.2,30.19,SSW,201,2.0,2.0,66,0.00,,,0.00,Wunderground v.1.13,2013-11-19 11:24:00,
2013-11-19 06:29:00,36.5,26.2,30.19,SSW,206,1.0,9.0,66,0.00,,,0.00,Wunderground v.1.13,2013-11-19 11:29:00,
2013-11-19 06:34:00,36.5,26.6,30.19,SSW,192,1.0,1.0,67,0.00,,,0.00,Wunderground v.1.13,2013-11-19 11:34:00,
2013-11-19 06:39:00,36.5,26.2,30.19,SE,137,1.0,1.0,66,0.00,,,0.00,Wunderground v.1.13,2013-11-19 11:39:00,
2013-11-19 06:44:00,36.5,26.2,30.19,SSE,166,2.0,9.0,66,0.00,,,0.00,Wunderground v.1.13,2013-11-19 11:44:00,
2013-11-19 06:49:00,36.5,26.6,30.19,SSE,158,1.0,1.0,67,0.00,,,0.00,Wunderground v.1.13,2013-11-19 11:49:00,
2013-11-19 06:59:00,36.6,26.7,30.19,South,180,1.0,1.0,67,0.00,,,0.00,Wunderground v.1.13,2013-11-19 11:59:00,
2013-11-19 07:04:00,36.6,26.7,30.20,South,180,1.0,1.0,67,0.00,,,0.00,Wunderground v.1.13,2013-11-19 12:04:00,
2013-11-19 07:14:00,36.6,26.7,30.20,SE,146,1.0,3.0,67,0.00,,,0.00,Wunderground v.1.13,2013-11-19 12:14:00,
2013-11-19 07:19:00,36.6,26.7,30.21,SSE,157,1.0,1.0,67,0.00,,,0.00,Wunderground v.1.13,2013-11-19 12:19:00,
2013-11-19 07:24:00,36.7,26.8,30.21,South,183,1.0,1.0,67,0.00,,,0.00,Wunderground v.1.13,2013-11-19 12:24:00,
2013-11-19 07:29:00,36.7,26.8,30.21,South,183,0.0,3.0,67,0.00,,,0.00,Wunderground v.1.13,2013-11-19 12:29:00,
2013-11-19 07:34:00,36.7,27.1,30.21,South,183,0.0,3.0,68,0.00,,,0.00,Wunderground v.1.13,2013-11-19 12:34:00,
2013-11-19 07:39:00,36.7,27.1,30.21,South,183,0.0,3.0,68,0.00,,,0.00,Wunderground v.1.13,2013-11-19 12:39:00,
2013-11-19 07:44:00,36.7,26.8,30.21,SW,217,0.0,3.0,67,0.00,,,0.00,Wunderground v.1.13,2013-11-19 12:44:00,
2013-11-19 07:49:00,36.8,26.9,30.22,South,176,1.0,3.0,67,0.00,,,0.00,Wunderground v.1.13,2013-11-19 12:49:00,
2013-11-19 07:59:00,36.8,26.9,30.22,South,186,1.0,3.0,67,0.00,,,0.00,Wunderground v.1.13,2013-11-19 12:59:00,
2013-11-19 08:04:00,36.9,27.0,30.22,WSW,238,1.0,6.0,67,0.00,,,0.00,Wunderground v.1.13,2013-11-19 13:04:00,
2013-11-19 08:14:00,36.9,26.6,30.23,SE,130,2.0,2.0,66,0.00,,,0.00,Wunderground v.1.13,2013-11-19 13:14:00,
2013-11-19 08:24:00,37.0,26.7,30.24,WSW,237,1.0,4.0,66,0.00,,,0.00,Wunderground v.1.13,2013-11-19 13:24:00,
2013-11-19 08:29:00,37.1,27.2,30.24,SSE,152,1.0,1.0,67,0.00,,,0.00,Wunderground v.1.13,2013-11-19 13:29:00,
2013-11-19 08:34:00,37.1,26.8,30.24,South,171,1.0,3.0,66,0.00,,,0.00,Wunderground v.1.13,2013-11-19 13:34:00,
2013-11-19 08:39:00,37.2,27.2,30.24,SW,215,1.0,1.0,67,0.00,,,0.00,Wunderground v.1.13,2013-11-19 13:39:00,
2013-11-19 08:44:00,37.2,27.2,30.24,SSE,167,1.0,1.0,67,0.00,,,0.00,Wunderground v.1.13,2013-11-19 13:44:00,
2013-11-19 08:49:00,37.2,27.2,30.25,SE,129,1.0,4.0,67,0.00,,,0.00,Wunderground v.1.13,2013-11-19 13:49:00,
2013-11-19 08:59:00,37.3,27.3,30.25,South,180,2.0,2.0,67,0.00,,,0.00,Wunderground v.1.13,2013-11-19 13:59:00,
2013-11-19 09:04:00,37.2,27.2,30.25,South,183,1.0,5.0,67,0.00,,,0.00,Wunderground v.1.13,2013-11-19 14:04:00,
2013-11-19 09:14:00,37.3,27.3,30.25,South,188,1.0,1.0,67,0.00,,,0.00,Wunderground v.1.13,2013-11-19 14:14:00,
2013-11-19 09:24:00,37.4,27.4,30.26,South,188,0.0,5.0,67,0.00,,,0.00,Wunderground v.1.13,2013-11-19 14:24:00,
2013-11-19 09:29:00,37.4,27.4,30.26,SSE,147,1.0,5.0,67,0.00,,,0.00,Wunderground v.1.13,2013-11-19 14:29:00,
2013-11-19 09:34:00,37.5,27.5,30.26,SSE,161,1.0,1.0,67,0.00,,,0.00,Wunderground v.1.13,2013-11-19 14:34:00,
2013-11-19 09:44:00,37.4,27.8,30.27,South,178,0.0,5.0,68,0.00,,,0.00,Wunderground v.1.13,2013-11-19 14:44:00,
2013-11-19 09:54:00,37.3,27.3,30.27,East,97,1.0,5.0,67,0.00,,,0.00,Wunderground v.1.13,2013-11-19 14:54:00,
2013-11-19 10:04:00,37.4,27.1,30.27,ENE,57,2.0,2.0,66,0.00,,,0.00,Wunderground v.1.13,2013-11-19 15:04:00,
2013-11-19 10:14:00,37.4,27.1,30.28,SE,139,2.0,6.0,66,0.00,,,0.00,Wunderground v.1.13,2013-11-19 15:14:00,
2013-11-19 10:24:00,37.5,27.2,30.28,ESE,120,2.0,6.0,66,0.00,,,0.00,Wunderground v.1.13,2013-11-19 15:24:00,
2013-11-19 10:34:00,37.4,26.7,30.29,SE,142,2.0,2.0,65,0.00,,,0.00,Wunderground v.1.13,2013-11-19 15:34:00,
2013-11-19 10:44:00,37.4,26.7,30.29,South,172,1.0,1.0,65,0.00,,,0.00,Wunderground v.1.13,2013-11-19 15:44:00,
2013-11-19 10:54:00,37.2,26.5,30.29,SE,137,2.0,6.0,65,0.00,,,0.00,Wunderground v.1.13,2013-11-19 15:54:00,
2013-11-19 10:59:00,37.3,26.6,30.29,ESE,107,2.0,2.0,65,0.00,,,0.00,Wunderground v.1.13,2013-11-19 15:59:00,
2013-11-19 11:04:00,37.2,26.5,30.30,SE,137,2.0,5.0,65,0.00,,,0.00,Wunderground v.1.13,2013-11-19 16:04:00,
2013-11-19 11:14:00,37.2,26.9,30.30,SE,133,2.0,2.0,66,0.00,,,0.00,Wunderground v.1.13,2013-11-19 16:14:00,
2013-11-19 11:19:00,37.3,27.0,30.30,SE,145,1.0,5.0,66,0.00,,,0.00,Wunderground v.1.13,2013-11-19 16:19:00,
2013-11-19 11:24:00,37.2,26.5,30.29,NNE,28,1.0,5.0,65,0.00,,,0.00,Wunderground v.1.13,2013-11-19 16:24:00,
2013-11-19 11:29:00,37.3,27.0,30.30,SSE,157,2.0,2.0,66,0.00,,,0.00,Wunderground v.1.13,2013-11-19 16:29:00,
2013-11-19 11:34:00,37.3,27.0,30.30,SE,145,2.0,2.0,66,0.00,,,0.00,Wunderground v.1.13,2013-11-19 16:34:00,
2013-11-19 11:39:00,37.4,27.1,30.30,SSE,159,2.0,2.0,66,0.00,,,0.00,Wunderground v.1.13,2013-11-19 16:39:00,
2013-11-19 11:49:00,37.4,27.1,30.29,SSE,161,1.0,1.0,66,0.00,,,0.00,Wunderground v.1.13,2013-11-19 16:49:00,
2013-11-19 11:54:00,37.4,27.1,30.29,SSW,196,1.0,5.0,66,0.00,,,0.00,Wunderground v.1.13,2013-11-19 16:54:00,
2013-11-19 11:59:00,37.5,27.2,30.29,SSW,192,1.0,1.0,66,0.00,,,0.00,Wunderground v.1.13,2013-11-19 16:59:00,
2013-11-19 12:04:00,37.5,26.8,30.30,SSE,155,1.0,4.0,65,0.00,,,0.00,Wunderground v.1.13,2013-11-19 17:04:00,
2013-11-19 12:14:00,37.5,26.8,30.29,SSE,150,2.0,2.0,65,0.00,,,0.00,Wunderground v.1.13,2013-11-19 17:14:00,
2013-11-19 12:24:00,37.7,27.4,30.30,SE,134,1.0,1.0,66,0.00,,,0.00,Wunderground v.1.13,2013-11-19 17:24:00,
2013-11-19 12:29:00,37.7,27.4,30.29,SSE,156,1.0,4.0,66,0.00,,,0.00,Wunderground v.1.13,2013-11-19 17:29:00,
2013-11-19 12:34:00,37.7,27.0,30.30,SSW,192,1.0,1.0,65,0.00,,,0.00,Wunderground v.1.13,2013-11-19 17:34:00,
2013-11-19 12:39:00,37.7,27.4,30.29,South,187,1.0,1.0,66,0.00,,,0.00,Wunderground v.1.13,2013-11-19 17:39:00,
2013-11-19 12:49:00,37.9,27.5,30.30,South,171,0.0,4.0,66,0.00,,,0.00,Wunderground v.1.13,2013-11-19 17:49:00,
2013-11-19 12:54:00,37.8,27.1,30.29,SE,143,1.0,4.0,65,0.00,,,0.00,Wunderground v.1.13,2013-11-19 17:54:00,
2013-11-19 12:59:00,37.7,27.4,30.30,WSW,240,1.0,4.0,66,0.00,,,0.00,Wunderground v.1.13,2013-11-19 17:59:00,
2013-11-19 13:04:00,37.7,27.4,30.30,SW,234,3.0,3.0,66,0.00,,,0.00,Wunderground v.1.13,2013-11-19 18:04:00,
2013-11-19 13:14:00,37.8,27.8,30.30,SSE,153,1.0,6.0,67,0.00,,,0.00,Wunderground v.1.13,2013-11-19 18:14:00,
2013-11-19 13:19:00,37.8,27.1,30.30,SSE,155,1.0,6.0,65,0.00,,,0.00,Wunderground v.1.13,2013-11-19 18:19:00,
2013-11-19 13:29:00,37.8,27.1,30.30,SSE,162,1.0,1.0,65,0.00,,,0.00,Wunderground v.1.13,2013-11-19 18:29:00,
2013-11-19 13:34:00,37.9,27.2,30.30,SE,146,2.0,6.0,65,0.00,,,0.00,Wunderground v.1.13,2013-11-19 18:34:00,
2013-11-19 13:39:00,37.9,27.2,30.30,SE,126,2.0,2.0,65,0.00,,,0.00,Wunderground v.1.13,2013-11-19 18:39:00,
2013-11-19 13:49:00,38.0,26.9,30.30,South,178,2.0,6.0,64,0.00,,,0.00,Wunderground v.1.13,2013-11-19 18:49:00,
2013-11-19 13:59:00,38.2,27.1,30.30,SSE,160,1.0,6.0,64,0.00,,,0.00,Wunderground v.1.13,2013-11-19 18:59:00,
2013-11-19 14:04:00,38.2,26.7,30.30,ESE,102,1.0,6.0,63,0.00,,,0.00,Wunderground v.1.13,2013-11-19 19:04:00,
2013-11-19 14:14:00,38.3,26.8,30.30,South,169,1.0,1.0,63,0.00,,,0.00,Wunderground v.1.13,2013-11-19 19:14:00,
2013-11-19 14:19:00,38.3,26.8,30.30,SSE,149,2.0,2.0,63,0.00,,,0.00,Wunderground v.1.13,2013-11-19 19:19:00,
2013-11-19 14:29:00,38.2,26.7,30.30,South,191,2.0,2.0,63,0.00,,,0.00,Wunderground v.1.13,2013-11-19 19:29:00,
2013-11-19 14:34:00,38.4,26.9,30.30,SSE,168,1.0,1.0,63,0.00,,,0.00,Wunderground v.1.13,2013-11-19 19:34:00,
2013-11-19 14:39:00,38.6,27.1,30.30,South,180,1.0,6.0,63,0.00,,,0.00,Wunderground v.1.13,2013-11-19 19:39:00,
2013-11-19 14:49:00,38.6,26.7,30.30,South,182,2.0,2.0,62,0.00,,,0.00,Wunderground v.1.13,2013-11-19 19:49:00,
2013-11-19 14:54:00,38.6,26.7,30.30,SSW,196,2.0,2.0,62,0.00,,,0.00,Wunderground v.1.13,2013-11-19 19:54:00,
2013-11-19 14:59:00,38.6,26.7,30.30,SSE,158,1.0,6.0,62,0.00,,,0.00,Wunderground v.1.13,2013-11-19 19:59:00,
2013-11-19 15:04:00,38.7,26.8,30.30,SW,217,0.0,5.0,62,0.00,,,0.00,Wunderground v.1.13,2013-11-19 20:04:00,
2013-11-19 15:14:00,38.6,26.3,30.31,SE,137,2.0,3.0,61,0.00,,,0.00,Wunderground v.1.13,2013-11-19 20:14:00,
2013-11-19 15:19:00,38.7,26.8,30.31,SE,125,2.0,3.0,62,0.00,,,0.00,Wunderground v.1.13,2013-11-19 20:19:00,
2013-11-19 15:24:00,38.8,26.9,30.31,SSE,164,1.0,1.0,62,0.00,,,0.00,Wunderground v.1.13,2013-11-19 20:24:00,
2013-11-19 15:29:00,38.8,26.9,30.31,SSW,201,1.0,3.0,62,0.00,,,0.00,Wunderground v.1.13,2013-11-19 20:29:00,
2013-11-19 15:39:00,38.7,26.8,30.31,SE,134,2.0,2.0,62,0.00,,,0.00,Wunderground v.1.13,2013-11-19 20:39:00,
2013-11-19 15:49:00,38.7,26.4,30.31,SE,128,1.0,1.0,61,0.00,,,0.00,Wunderground v.1.13,2013-11-19 20:49:00,
2013-11-19 15:54:00,38.7,26.4,30.31,SE,128,1.0,1.0,61,0.00,,,0.00,Wunderground v.1.13,2013-11-19 20:54:00,
2013-11-19 16:04:00,38.6,25.9,30.32,SE,126,1.0,1.0,60,0.00,,,0.00,Wunderground v.1.13,2013-11-19 21:04:00,
2013-11-19 16:14:00,38.5,26.2,30.32,SSE,159,1.0,1.0,61,0.00,,,0.00,Wunderground v.1.13,2013-11-19 21:14:00,
2013-11-19 16:19:00,38.4,25.7,30.32,SSE,157,1.0,1.0,60,0.00,,,0.00,Wunderground v.1.13,2013-11-19 21:19:00,
2013-11-19 16:29:00,38.2,25.5,30.32,SSE,157,0.0,3.0,60,0.00,,,0.00,Wunderground v.1.13,2013-11-19 21:29:00,
2013-11-19 16:34:00,38.1,25.4,30.32,SSE,157,0.0,3.0,60,0.00,,,0.00,Wunderground v.1.13,2013-11-19 21:34:00,
2013-11-19 16:44:00,38.0,26.5,30.32,SSE,157,0.0,3.0,63,0.00,,,0.00,Wunderground v.1.13,2013-11-19 21:44:00,
2013-11-19 16:54:00,37.8,25.5,30.33,SSE,157,1.0,1.0,61,0.00,,,0.00,Wunderground v.1.13,2013-11-19 21:54:00,
2013-11-19 16:59:00,37.7,25.8,30.33,SSE,157,0.0,3.0,62,0.00,,,0.00,Wunderground v.1.13,2013-11-19 21:59:00,
2013-11-19 17:04:00,37.6,25.7,30.33,South,177,0.0,2.0,62,0.00,,,0.00,Wunderground v.1.13,2013-11-19 22:04:00,
2013-11-19 17:14:00,37.6,26.1,30.33,SSW,196,0.0,1.0,63,0.00,,,0.00,Wunderground v.1.13,2013-11-19 22:14:00,
2013-11-19 17:19:00,37.6,26.5,30.33,SSW,196,0.0,1.0,64,0.00,,,0.00,Wunderground v.1.13,2013-11-19 22:19:00,
2013-11-19 17:29:00,37.4,25.9,30.34,SSE,152,1.0,1.0,63,0.00,,,0.00,Wunderground v.1.13,2013-11-19 22:29:00,
2013-11-19 17:34:00,37.3,25.8,30.34,SSE,153,1.0,2.0,63,0.00,,,0.00,Wunderground v.1.13,2013-11-19 22:34:00,
2013-11-19 17:44:00,37.1,25.7,30.35,SSE,152,1.0,1.0,63,0.00,,,0.00,Wunderground v.1.13,2013-11-19 22:44:00,
2013-11-19 17:49:00,37.1,25.7,30.35,SSE,153,0.0,1.0,63,0.00,,,0.00,Wunderground v.1.13,2013-11-19 22:49:00,
2013-11-19 17:54:00,37.0,25.9,30.35,SSE,153,0.0,1.0,64,0.00,,,0.00,Wunderground v.1.13,2013-11-19 22:54:00,
2013-11-19 18:04:00,36.6,25.6,30.36,SSE,152,0.0,1.0,64,0.00,,,0.00,Wunderground v.1.13,2013-11-19 23:04:00,
2013-11-19 18:14:00,36.2,25.2,30.36,SSE,152,0.0,1.0,64,0.00,,,0.00,Wunderground v.1.13,2013-11-19 23:14:00,
2013-11-19 18:19:00,36.1,25.5,30.36,SSE,153,1.0,1.0,65,0.00,,,0.00,Wunderground v.1.13,2013-11-19 23:19:00,
2013-11-19 18:24:00,36.0,25.7,30.36,SSE,152,0.0,1.0,66,0.00,,,0.00,Wunderground v.1.13,2013-11-19 23:24:00,
2013-11-19 18:34:00,35.7,25.1,30.37,SSE,153,0.0,1.0,65,0.00,,,0.00,Wunderground v.1.13,2013-11-19 23:34:00,
2013-11-19 18:39:00,35.6,25.0,30.36,SSE,153,0.0,1.0,65,0.00,,,0.00,Wunderground v.1.13,2013-11-19 23:39:00,
2013-11-19 18:44:00,35.5,25.3,30.36,SSE,152,0.0,1.0,66,0.00,,,0.00,Wunderground v.1.13,2013-11-19 23:44:00,
2013-11-19 18:54:00,35.0,25.1,30.37,SSE,152,1.0,1.0,67,0.00,,,0.00,Wunderground v.1.13,2013-11-19 23:54:00,
2013-11-19 19:04:00,34.6,24.8,30.37,SSE,153,1.0,2.0,67,0.00,,,0.00,Wunderground v.1.13,2013-11-20 00:04:00,
2013-11-19 19:14:00,34.4,24.2,30.37,SSE,153,1.0,2.0,66,0.00,,,0.00,Wunderground v.1.13,2013-11-20 00:14:00,
2013-11-19 19:24:00,34.4,25.3,30.38,SSE,152,1.0,1.0,69,0.00,,,0.00,Wunderground v.1.13,2013-11-20 00:24:00,
2013-11-19 19:29:00,34.1,25.0,30.38,SSE,153,0.0,2.0,69,0.00,,,0.00,Wunderground v.1.13,2013-11-20 00:29:00,
2013-11-19 19:39:00,33.8,24.4,30.38,SSE,153,0.0,2.0,68,0.00,,,0.00,Wunderground v.1.13,2013-11-20 00:39:00,
2013-11-19 19:44:00,33.8,24.7,30.38,SSE,153,0.0,2.0,69,0.00,,,0.00,Wunderground v.1.13,2013-11-20 00:44:00,
2013-11-19 19:49:00,33.6,24.5,30.38,SSE,152,0.0,2.0,69,0.00,,,0.00,Wunderground v.1.13,2013-11-20 00:49:00,
2013-11-19 19:54:00,33.4,24.7,30.38,SSE,153,1.0,2.0,70,0.00,,,0.00,Wunderground v.1.13,2013-11-20 00:54:00,
2013-11-19 20:04:00,32.8,24.8,30.39,SSE,152,0.0,1.0,72,0.00,,,0.00,Wunderground v.1.13,2013-11-20 01:04:00,
2013-11-19 20:14:00,32.5,24.1,30.39,SSE,153,0.0,1.0,71,0.00,,,0.00,Wunderground v.1.13,2013-11-20 01:14:00,
2013-11-19 20:19:00,32.3,24.3,30.39,SSE,153,0.0,1.0,72,0.00,,,0.00,Wunderground v.1.13,2013-11-20 01:19:00,
2013-11-19 20:29:00,31.9,24.2,30.39,SSE,152,0.0,1.0,73,0.00,,,0.00,Wunderground v.1.13,2013-11-20 01:29:00,
2013-11-19 20:34:00,31.7,24.0,30.39,SSE,153,0.0,1.0,73,0.00,,,0.00,Wunderground v.1.13,2013-11-20 01:34:00,
2013-11-19 20:39:00,31.6,24.3,30.39,SSE,152,0.0,1.0,74,0.00,,,0.00,Wunderground v.1.13,2013-11-20 01:39:00,
2013-11-19 20:49:00,31.3,24.0,30.40,SSE,153,0.0,1.0,74,0.00,,,0.00,Wunderground v.1.13,2013-11-20 01:49:00,
2013-11-19 20:54:00,31.1,23.8,30.40,SSE,153,0.0,1.0,74,0.00,,,0.00,Wunderground v.1.13,2013-11-20 01:54:00,
2013-11-19 21:04:00,30.8,23.5,30.41,SSE,153,0.0,0.0,74,0.00,,,0.00,Wunderground v.1.13,2013-11-20 02:04:00,
2013-11-19 21:14:00,30.6,23.6,30.41,SSE,153,0.0,0.0,75,0.00,,,0.00,Wunderground v.1.13,2013-11-20 02:14:00,
2013-11-19 21:19:00,30.5,23.5,30.41,SSE,153,0.0,0.0,75,0.00,,,0.00,Wunderground v.1.13,2013-11-20 02:19:00,
2013-11-19 21:24:00,30.3,23.6,30.41,SSE,152,0.0,0.0,76,0.00,,,0.00,Wunderground v.1.13,2013-11-20 02:24:00,
2013-11-19 21:29:00,30.2,23.5,30.41,SSE,153,0.0,0.0,76,0.00,,,0.00,Wunderground v.1.13,2013-11-20 02:29:00,
2013-11-19 21:39:00,30.1,23.4,30.41,SSE,153,0.0,0.0,76,0.00,,,0.00,Wunderground v.1.13,2013-11-20 02:39:00,
2013-11-19 21:44:00,29.9,23.6,30.41,SSE,153,0.0,0.0,77,0.00,,,0.00,Wunderground v.1.13,2013-11-20 02:44:00,
2013-11-19 21:54:00,29.7,23.4,30.42,SSE,152,0.0,0.0,77,0.00,,,0.00,Wunderground v.1.13,2013-11-20 02:54:00,
2013-11-19 22:04:00,29.6,23.6,30.43,SSE,153,0.0,0.0,78,0.00,,,0.00,Wunderground v.1.13,2013-11-20 03:04:00,
2013-11-19 22:14:00,29.3,23.6,30.43,SSE,152,0.0,0.0,79,0.00,,,0.00,Wunderground v.1.13,2013-11-20 03:14:00,
2013-11-19 22:19:00,29.3,23.3,30.43,SSE,153,0.0,0.0,78,0.00,,,0.00,Wunderground v.1.13,2013-11-20 03:19:00,
2013-11-19 22:24:00,29.2,23.2,30.43,SSE,152,0.0,0.0,78,0.00,,,0.00,Wunderground v.1.13,2013-11-20 03:24:00,
2013-11-19 22:29:00,29.1,23.4,30.43,SSE,152,0.0,0.0,79,0.00,,,0.00,Wunderground v.1.13,2013-11-20 03:29:00,
2013-11-19 22:34:00,29.0,23.3,30.43,SSE,153,0.0,0.0,79,0.00,,,0.00,Wunderground v.1.13,2013-11-20 03:34:00,
2013-11-19 22:44:00,28.8,23.1,30.43,SSE,152,0.0,0.0,79,0.00,,,0.00,Wunderground v.1.13,2013-11-20 03:44:00,
2013-11-19 22:49:00,28.8,23.4,30.42,SSE,153,0.0,0.0,80,0.00,,,0.00,Wunderground v.1.13,2013-11-20 03:49:00,
2013-11-19 22:59:00,28.8,23.7,30.43,SSE,153,0.0,0.0,81,0.00,,,0.00,Wunderground v.1.13,2013-11-20 03:59:00,
2013-11-19 23:04:00,28.7,23.6,30.43,SSE,152,0.0,0.0,81,0.00,,,0.00,Wunderground v.1.13,2013-11-20 04:04:00,
2013-11-19 23:14:00,28.6,23.5,30.43,SSE,153,0.0,0.0,81,0.00,,,0.00,Wunderground v.1.13,2013-11-20 04:14:00,
2013-11-19 23:19:00,28.5,23.7,30.43,SSE,153,0.0,0.0,82,0.00,,,0.00,Wunderground v.1.13,2013-11-20 04:19:00,
2013-11-19 23:29:00,28.3,23.5,30.43,SSE,153,0.0,0.0,82,0.00,,,0.00,Wunderground v.1.13,2013-11-20 04:29:00,
2013-11-19 23:34:00,28.2,23.4,30.44,SSE,153,0.0,0.0,82,0.00,,,0.00,Wunderground v.1.13,2013-11-20 04:34:00,
2013-11-19 23:44:00,28.1,23.3,30.44,SSE,153,0.0,0.0,82,0.00,,,0.00,Wunderground v.1.13,2013-11-20 04:44:00,
2013-11-19 23:54:00,28.0,23.5,30.43,SSE,153,0.0,0.0,83,0.00,,,0.00,Wunderground v.1.13,2013-11-20 04:54:00,
2013-11-19 23:59:00,28.0,23.2,30.43,SSE,152,0.0,0.0,82,0.00,,,0.00,Wunderground v.1.13,2013-11-20 04:59:00,